TITAN 3C TRANSTAGE DEB, 2799

Orbit data source: Space-Track

TITAN 3C TRANSTAGE DEB, 2799 is space debris in LEO originally from a launch on Fri, 15 Oct 1965 UTC launched from the Air Force Eastern Test Range (AFETR). Debris objects in space refer to the collection of defunct objects orbiting the Earth. Examples of debris include non-operational satellites, rocket bodies, and fragments generated from explosions, collisions, or faulty payload assembly.

Loading next visibility...
Identifier
2799, 1965-082KX
Orbit
LEO
Country
Flag of USUS
Related business
Manufacturer
Unknown
Mission
Spacecraft
Bus & Motor
Unknown
Mass
Unknown
Launch date (UTC)
1965-10-15 (60 years ago)
Launch vehicle
Unknown
Launch site
Air Force Eastern Test Range (AFETR)
Object type
Payload
Rocket body
Debris
Shape & HBR
Unknown
Radar Cross Section
Small (<0.1 m²)

Expand to show TLE details & history
Last TLE update: 1 day ago

TLE from 1 day ago
0 TITAN 3C TRANSTAGE DEB
1 02799U 65082KX  25260.08214073  .00001342  00000-0  19595-3 0  9990
2 02799  32.0549 189.9916 0034129 283.1331 184.7983 14.73153621115836
Epoch: 2025-09-17T01:58Z
TLE epoch observation values (Epoch: 2025-09-17T01:58:16.959Z)
Latitude
30.46652°
Longitude
-84.96432°
Altitude
674.45 km
Speed
7.512 km/s
True Right ascension
20h 03m 28s
True Declination
30° 18' 53"
Sunlit
Object was in full shadow at epoch
Visualization orbit readout
Latitude
Unknown
Longitude
Unknown
Altitude
Unknown
Speed
Unknown
Apparent Right ascension
Unknown
Apparent Declination
Unknown
Sunlit
N/A
Visualization observer readout
Local Sidereal Time
22:26:40
Azimuth
Unknown
Elevation
Unknown
Doppler factor
Unknown
Orbital elements
Apogee altitude
678.645 km
Perigee altitude
630.64 km
Semi-major axis
7,032.78 km
Eccentricity
0.00341
Inclination
32.0549°
RAAN
189.9916°
Arg. of periapsis
283.1331°
True anomaly
184.76572°
Mean anomaly
184.7983°
Eccentric anomaly
184.782°
Mean motion
3.68004 °/min
Orbital period
97.82 mins
BSTAR
0.00019595
Loading maneuver chart data...
Computing Atmospheric mass density...

Documentation

Showing up to 5 results
|